"Pseudo-MPEC" for P10SBxp

Created 2019 Oct 10 13:07:30 UT using Find_Orb

Click here for an explanation of pseudo-MPECs

 
 Astrometry: 
     P10SBxp  C2019 10 08yShL3_:]AV%eg3o-6l8XdAy[s/3-Gb'pIM).gA*wFo?YJd\N:6d3F51
     P10SBxp  C2019 10 08EQ@F:G0KNm4o4m[g2n+8p0Ux$kb86n26.h7r:eeN[F(53n)r`BpWF51
     P10SBxp  C2019 10 08uOH]A8QSN9Bfe6Q+f_nt+bW#HYs6uH82iPv%1rEwbP(=gxe;)Nr-F51
     P10SBxp ^C2019 10 09PRaAstrometry#B\K[Hredacted;n1fEjxq5OZfW:]x9H9BP1)[=695
     P10SBxp ^C2019 10 09D^`ZdA)2RIWC!)2PcRaW59J8RGB*#5Obu/l8IJF=SXHpecM#Rl/y695
     P10SBxp ^C2019 10 095M)8c2T8BZ/hsX*w$P6$!g'VjYHTX]click'PDN*7JeF98$w5\y?695
     P10SBxp ^C2019 10 10LW?NEF^i`C8hereD%.N#]X:aw`5xJTQC'/b/./mwiSu[Qj%#'8rh695
     P10SBxp ^C2019 10 1052CKQuO+sfi5uwDBugPJI'Jma'Nyyp4f99=hCoforpC^+\*;1Kk[695
     P10SBxp ^C2019 10 10tL_A3fof@fU,Yn#HkYqa/GuEQ60'EQ-*LexplanationAKBaEb+u695

Station data:
(695) Kitt Peak  (N31.958398 W111.594670)  US/Arizona.
(F51) Pan-STARRS 1, Haleakala  (N20.707235 W156.255910)  US/Hawaii.
   Observers N. Primak, A. Schultz, S. Watters, J. Thiel, T. Goggia. Measurer
   PS1 Science Consortium. 1.8-m Ritchey-Chrétien + CCD.

Orbital elements:  P10SBxp
   Perihelion 2019 Jun 7.586015 +/- 0.418 TT = 14:03:51 (JD 2458642.086015)
Epoch 2019 Oct 10.0 TT = JDT 2458766.5   Earth MOID: 0.4904   Ma: 0.0211
M  60.97257010 +/- 1.6              (J2000 ecliptic)          AutoNEOCP
n   0.49007810 +/- 0.0116           Peri.  302.98411 +/- 1.7
a   1.59328150 +/- 0.0251           Node     5.41818 +/- 0.32
e   0.0905095 +/- 0.00709           Incl.   23.23069 +/- 0.9
P   2.01/734.56d           H 22.2   G  0.15   U  9.7  
q 1.44907432 +/- 0.0254    Q 1.73748867 +/- 0.0304
From 9 observations 2019 Oct. 8-10 (42.4 hr); mean residual 0".08
Residuals in arcseconds: 
191008 F51  .03-  .03-    191009 695  .08-  .08-    191010 695  .11+  .05-    
191008 F51  .02-  .03-    191009 695  .09-  .17+    191010 695  .08-  .03+    
191008 F51  .04+  .05+    191009 695  .19+  .07-    191010 695  .04-  .01+    

Ephemerides (geocentric):
Date (UTC) HH   RA              Dec         delta   r     elong  mag " sig PA
---- -- -- --  -------------   -----------  ------ ------ -----  --- ---- ---
2019 10 10 13  00 52 43.728   +22 11 56.18  .54936 1.5346 164.2 22.4 .211 149
2019 10 10 14  00 52 36.995   +22 12 44.59  .54943 1.5346 164.2 22.4 .264 148
2019 10 10 15  00 52 30.263   +22 13 32.93  .54950 1.5347 164.2 22.4 .318 147
2019 10 10 16  00 52 23.532   +22 14 21.20  .54957 1.5347 164.2 22.4 .375 147
2019 10 10 17  00 52 16.802   +22 15 09.41  .54965 1.5348 164.2 22.4 .434 146
2019 10 10 18  00 52 10.073   +22 15 57.55  .54972 1.5348 164.2 22.4 .495 146
2019 10 10 19  00 52 03.345   +22 16 45.62  .54980 1.5349 164.2 22.4 .558 145
2019 10 10 20  00 51 56.617   +22 17 33.63  .54987 1.5349 164.2 22.4 .624 145
2019 10 10 21  00 51 49.891   +22 18 21.56  .54995 1.5350 164.2 22.4 .692 144
2019 10 10 22  00 51 43.167   +22 19 09.43  .55002 1.5350 164.1 22.4 .762 144
2019 10 10 23  00 51 36.443   +22 19 57.23  .55010 1.5351 164.1 22.4 .834 144
2019 10 11 00  00 51 29.720   +22 20 44.96  .55018 1.5351 164.1 22.5 .909 144
2019 10 11 01  00 51 22.998   +22 21 32.63  .55026 1.5352 164.1 22.5 .985 143
2019 10 11 02  00 51 16.278   +22 22 20.23  .55033 1.5352 164.1 22.5 1.06 143
2019 10 11 03  00 51 09.559   +22 23 07.76  .55041 1.5352 164.1 22.5 1.15 143
2019 10 11 04  00 51 02.841   +22 23 55.22  .55049 1.5353 164.1 22.5 1.23 143
2019 10 11 05  00 50 56.124   +22 24 42.61  .55057 1.5353 164.1 22.5 1.31 142
2019 10 11 06  00 50 49.409   +22 25 29.94  .55065 1.5354 164.1 22.5 1.40 142
2019 10 11 07  00 50 42.694   +22 26 17.19  .55073 1.5354 164.1 22.5 1.49 142
2019 10 11 08  00 50 35.981   +22 27 04.38  .55081 1.5355 164.1 22.5 1.59 142
2019 10 11 09  00 50 29.270   +22 27 51.50  .55089 1.5355 164.0 22.5 1.68 142
2019 10 11 10  00 50 22.559   +22 28 38.56  .55097 1.5356 164.0 22.5 1.78 142
2019 10 11 11  00 50 15.850   +22 29 25.54  .55105 1.5356 164.0 22.5 1.88 142
2019 10 11 12  00 50 09.143   +22 30 12.46  .55113 1.5357 164.0 22.5 1.98 141
2019 10 11 13  00 50 02.437   +22 30 59.30  .55122 1.5357 164.0 22.5 2.08 141
2019 10 11 14  00 49 55.732   +22 31 46.08  .55130 1.5358 164.0 22.5 2.19 141
2019 10 11 15  00 49 49.029   +22 32 32.79  .55138 1.5358 164.0 22.5 2.30 141
2019 10 11 16  00 49 42.327   +22 33 19.44  .55147 1.5359 164.0 22.5 2.41 141
2019 10 11 17  00 49 35.626   +22 34 06.01  .55155 1.5359 163.9 22.5 2.52 141
2019 10 11 18  00 49 28.928   +22 34 52.51  .55163 1.5360 163.9 22.5 2.64 141
2019 10 11 19  00 49 22.230   +22 35 38.95  .55172 1.5360 163.9 22.5 2.75 140
2019 10 11 20  00 49 15.535   +22 36 25.32  .55180 1.5361 163.9 22.5 2.87 140
2019 10 11 21  00 49 08.840   +22 37 11.62  .55189 1.5361 163.9 22.5 2.99 140
2019 10 11 22  00 49 02.148   +22 37 57.85  .55198 1.5362 163.9 22.5 3.12 140
2019 10 11 23  00 48 55.457   +22 38 44.01  .55206 1.5362 163.9 22.5 3.24 140
2019 10 12 00  00 48 48.768   +22 39 30.10  .55215 1.5363 163.9 22.5 3.37 140
2019 10 12 01  00 48 42.080   +22 40 16.13  .55224 1.5363 163.8 22.5 3.50 140
2019 10 12 02  00 48 35.394   +22 41 02.08  .55232 1.5364 163.8 22.5 3.64 140
2019 10 12 03  00 48 28.710   +22 41 47.97  .55241 1.5364 163.8 22.5 3.77 140
2019 10 12 04  00 48 22.027   +22 42 33.79  .55250 1.5365 163.8 22.5 3.91 140
2019 10 12 05  00 48 15.347   +22 43 19.54  .55259 1.5365 163.8 22.5 4.05 139
2019 10 12 06  00 48 08.668   +22 44 05.22  .55268 1.5366 163.8 22.5 4.19 139
2019 10 12 07  00 48 01.991   +22 44 50.83  .55277 1.5366 163.7 22.5 4.34 139
2019 10 12 08  00 47 55.315   +22 45 36.37  .55286 1.5367 163.7 22.5 4.49 139
2019 10 12 09  00 47 48.642   +22 46 21.84  .55295 1.5367 163.7 22.5 4.63 139
2019 10 12 10  00 47 41.970   +22 47 07.25  .55304 1.5368 163.7 22.5 4.79 139
2019 10 12 11  00 47 35.300   +22 47 52.58  .55313 1.5368 163.7 22.5 4.94 139
2019 10 12 12  00 47 28.632   +22 48 37.85  .55323 1.5369 163.7 22.5 5.10 139